Wind_Speed
11 11 11 11 11 11 12 12 12 12 12 12 12 12 11 11 11 11 11 11 12 12 12 11 11 11 11 12 11 11 13 15 14 10 11 11 9 9 9 9 6 7 10 9 10 9 8 10 11 14 12 9 6 3 6 5 2 2 2 0 1 1 1 1 1 1 1 1 6 12 10 6 4 5 4 1 5 10 12 13 14 15 16 19 25 28 29 28
12 12 12 12 12 12 12 12 12 12 13 13 13 12 12 11 11 11 11 12 11 11 11 11 11 11 11 11 10 10 13 16 14 15 18 12 7 10 11 10 5 6 9 11 13 11 8 9 11 12 8 4 5 4 7 1 1 2 2 2 0 1 1 1 1 2 2 0 2 8 5 5 6 4 2 4 8 9 11 14 16 17 18 21 26 27 27 27
14 14 13 13 13 13 12 12 12 13 13 14 13 12 11 11 10 10 11 11 11 10 10 11 11 12 11 10 8 9 13 14 10 12 11 8 12 15 12 11 9 8 10 13 14 14 12 12 14 12 6 5 5 4 6 1 1 1 1 1 2 2 0 1 3 3 4 2 3 6 9 3 4 3 2 6 9 9 11 14 17 19 20 20 20 24 26 24
16 16 15 15 15 15 14 13 13 13 13 14 14 13 12 11 10 10 10 10 10 9 10 10 11 11 10 8 7 9 10 9 4 5 0 1 8 15 16 14 11 10 12 14 13 15 16 15 14 9 6 5 3 5 4 3 2 1 2 2 2 3 1 1 3 4 6 5 5 2 5 7 3 2 2 8 8 7 10 14 20 21 20 20 18 20 23 22
17 17 16 16 15 16 15 15 15 14 14 14 14 13 13 12 11 10 10 10 10 10 10 10 11 11 10 8 6 8 7 2 1 2 3 3 3 11 16 17 14 12 12 13 12 14 16 15 12 7 5 4 3 5 3 5 4 2 2 4 2 2 2 2 2 3 5 6 5 5 4 6 6 3 3 8 6 5 12 17 20 21 19 19 18 19 19 20
18 18 17 17 16 16 16 16 16 15 15 15 15 14 13 12 11 10 9 10 10 10 11 10 11 11 9 6 5 6 3 0 3 1 2 2 2 7 13 16 15 13 11 11 11 12 12 12 10 7 4 4 5 5 4 6 5 2 2 3 2 2 2 3 3 3 3 7 5 5 7 6 7 4 5 5 4 10 18 19 19 19 20 21 20 18 17 16
19 19 18 18 18 17 17 17 17 17 16 16 15 15 14 12 11 9 9 9 9 10 10 11 11 11 9 5 3 2 2 5 10 4 1 1 3 6 10 13 14 13 12 11 11 9 9 10 8 6 4 6 5 5 6 5 5 3 1 3 4 2 1 1 3 3 1 6 4 2 6 8 6 5 5 2 6 19 21 18 19 19 21 21 18 15 15 15
19 20 20 19 19 19 18 18 17 17 17 17 16 15 15 13 12 10 9 8 8 9 9 10 10 8 7 6 3 2 3 8 9 5 4 3 5 6 9 12 13 14 14 14 13 10 9 9 9 6 5 7 3 8 7 5 3 2 3 2 4 3 1 1 3 3 1 2 1 1 2 8 7 6 5 4 10 22 20 18 19 18 19 17 15 16 15 14
20 21 21 21 20 20 19 18 18 18 18 17 16 16 15 14 13 11 10 8 8 9 9 10 8 5 5 5 3 3 4 7 10 6 3 4 5 7 11 12 15 17 14 14 14 12 9 7 8 7 6 7 3 9 8 4 1 1 4 3 3 4 2 1 1 3 0 1 0 2 5 7 8 6 5 7 14 21 19 19 18 16 17 14 14 15 14 13
20 21 21 22 21 21 20 19 18 18 18 17 17 16 16 15 13 12 10 9 8 8 9 9 6 4 4 4 3 3 6 5 9 4 4 4 3 9 12 12 17 18 13 12 14 13 11 8 7 7 5 7 4 6 8 4 3 5 6 4 5 5 2 2 1 3 2 1 2 1 4 5 7 4 4 9 17 20 18 19 17 16 15 14 14 13 13 14
20 21 22 22 22 22 21 20 19 18 18 17 17 17 16 16 14 12 10 9 9 8 9 8 4 3 3 5 2 3 7 1 2 3 8 4 3 9 13 13 16 18 13 10 14 16 15 15 11 6 3 4 3 6 9 7 8 9 8 7 7 4 2 3 3 3 2 2 4 4 1 2 4 4 5 12 17 18 18 18 16 15 13 13 14 11 10 12
21 21 22 22 23 22 22 21 20 18 18 18 18 17 16 15 14 12 10 9 8 8 7 5 3 4 4 4 6 9 8 6 7 2 8 3 3 7 9 13 16 17 15 10 13 19 20 19 14 8 3 3 1 6 9 12 12 9 8 8 5 3 4 4 4 2 2 2 5 5 0 0 1 4 6 13 16 17 17 17 15 14 12 12 12 10 8 10
21 22 22 23 23 23 22 21 20 19 18 19 18 17 16 14 13 11 11 9 8 7 6 3 2 3 4 3 10 15 10 6 10 6 4 5 7 9 8 12 15 16 17 15 15 18 18 17 14 8 5 6 2 6 7 8 9 7 6 5 4 3 3 4 4 3 3 3 5 4 2 2 3 6 8 11 15 18 16 14 14 12 12 11 9 8 8 10
21 22 23 23 23 22 22 21 20 19 18 19 19 18 16 14 12 11 10 9 7 6 4 2 2 2 1 6 15 18 11 8 12 11 9 10 10 12 12 12 15 15 17 18 18 18 16 15 12 6 5 5 2 8 7 3 1 5 5 2 2 2 1 3 3 3 2 2 4 3 3 3 4 5 9 12 14 16 15 13 13 11 11 10 8 9 8 9
21 22 23 23 23 23 22 21 20 19 19 20 19 18 15 13 12 11 10 8 6 5 3 3 1 1 2 8 16 14 9 10 12 13 11 12 12 11 13 14 16 17 17 18 18 19 17 12 7 4 3 4 4 3 5 2 2 1 4 2 1 1 2 2 3 1 1 2 4 3 3 2 2 1 4 10 15 15 14 12 13 12 12 10 8 9 8 8
21 22 23 23 23 23 22 21 20 19 20 20 20 19 15 13 13 12 10 7 5 4 1 3 4 5 3 5 8 7 8 9 10 14 12 13 14 11 14 16 15 16 17 17 17 16 15 8 3 2 3 3 5 3 4 4 1 4 2 4 2 2 3 1 2 1 3 2 4 3 3 1 1 4 9 8 15 14 12 12 14 14 12 11 8 9 8 7
21 22 23 24 24 23 22 21 20 20 20 20 21 19 15 14 15 14 10 5 4 4 4 5 5 4 5 8 7 7 10 10 8 10 12 12 12 11 13 13 10 11 13 14 15 12 8 5 1 2 2 2 4 2 3 2 1 2 1 3 3 3 6 3 1 1 1 1 2 3 2 1 3 8 9 8 14 13 12 12 14 13 11 9 8 9 9 7
21 23 24 24 24 23 22 21 20 20 20 20 20 19 16 15 15 13 7 2 1 3 5 8 7 2 4 8 8 8 8 9 7 7 9 9 11 12 9 7 6 8 8 8 9 8 3 2 2 1 3 3 4 3 3 3 4 4 2 2 3 4 6 5 3 5 5 3 1 1 1 1 3 5 6 9 11 11 11 11 12 12 11 9 8 10 8 8
22 23 23 24 24 23 22 21 20 20 20 21 20 19 16 12 10 7 3 2 1 2 3 4 4 1 4 6 8 4 4 5 6 6 8 10 11 11 8 6 6 7 6 3 5 6 2 2 3 2 4 4 6 7 4 4 4 5 4 3 5 4 3 4 3 5 7 4 3 4 3 2 5 6 6 10 9 8 10 9 10 11 10 9 8 10 9 8
22 23 24 24 24 23 22 20 20 20 20 21 19 15 10 6 4 1 2 4 7 7 8 6 8 7 9 7 2 1 4 1 3 5 7 9 8 7 7 6 6 6 5 4 6 6 4 3 4 5 6 8 10 10 6 6 7 5 4 4 6 5 2 3 3 4 4 3 3 4 3 4 7 5 5 8 9 7 9 8 9 11 10 8 9 11 9 7
23 23 23 23 24 23 21 20 20 20 20 20 16 7 4 6 5 3 3 4 10 13 12 12 12 11 9 9 2 0 2 2 2 4 6 8 7 5 5 5 5 4 4 6 6 5 5 4 5 8 10 12 12 10 9 9 10 7 4 5 5 4 3 2 4 8 4 1 3 3 4 5 5 2 4 3 9 9 9 9 9 12 11 8 10 12 9 6
24 23 24 24 23 22 21 20 19 20 20 17 10 2 5 10 12 14 9 5 9 12 14 15 16 10 7 12 8 1 2 3 4 6 6 8 7 4 5 5 5 4 6 8 5 5 5 5 7 10 11 13 13 10 10 11 10 7 4 5 4 4 4 2 3 9 4 1 4 2 4 5 3 2 5 3 3 4 5 5 7 12 11 8 11 12 9 8
24 24 24 23 23 23 21 20 19 21 21 14 8 8 10 13 19 18 9 4 10 12 11 12 12 9 5 10 9 3 4 6 5 6 9 8 5 5 6 5 5 6 7 8 6 4 5 6 10 11 10 12 13 10 7 10 8 6 5 4 5 6 5 1 2 7 3 1 4 3 1 1 2 2 2 3 2 1 1 2 2 10 10 8 12 11 8 10
24 24 24 23 24 22 20 21 19 18 18 14 15 18 17 16 19 16 8 4 7 10 11 9 8 7 5 5 6 7 6 4 5 6 11 7 4 5 6 6 6 6 6 9 9 7 6 9 12 12 11 11 12 10 8 7 5 7 8 5 7 9 6 5 6 6 3 2 4 5 2 1 2 0 1 2 3 2 2 4 2 7 9 8 11 11 9 11
25 25 24 24 23 20 21 19 12 13 15 13 18 21 19 15 16 14 7 4 4 5 9 6 3 2 3 6 7 6 4 5 8 5 13 8 8 4 4 5 5 5 8 10 10 8 8 9 12 13 11 11 10 8 8 8 5 6 9 9 12 12 8 12 12 7 4 1 4 6 3 3 2 1 3 2 3 2 2 3 2 4 7 8 10 10 10 11
25 25 24 23 22 19 17 9 5 13 15 14 19 20 14 8 11 13 5 3 3 2 3 3 2 0 1 4 6 1 3 5 7 4 15 10 10 5 3 3 3 5 8 8 6 4 7 8 8 12 11 11 10 6 7 10 6 4 10 15 14 13 12 15 13 6 3 3 4 4 3 2 1 2 4 1 2 2 2 1 2 3 4 7 8 9 10 11
26 25 24 22 20 17 9 5 10 16 11 12 20 20 12 10 12 11 3 1 1 0 2 3 2 3 3 4 4 1 1 3 5 2 10 10 8 5 4 4 2 3 6 5 4 3 6 10 7 10 11 9 6 4 7 7 5 2 10 18 16 13 14 13 10 3 2 4 4 2 1 2 2 4 4 3 2 2 4 4 3 3 4 5 8 9 10 11
26 25 24 21 18 14 9 10 14 12 8 13 20 18 15 16 14 7 2 1 2 0 1 2 3 4 5 6 5 4 2 2 2 1 5 10 9 4 4 8 5 4 7 5 4 4 8 9 9 9 9 6 5 7 7 4 6 4 11 16 13 13 12 10 6 2 2 4 4 4 2 2 2 2 3 4 3 5 6 6 6 4 5 6 9 9 10 12
26 25 23 19 15 12 10 11 10 9 11 15 15 17 19 18 11 2 1 2 1 1 1 2 2 3 4 5 4 4 2 2 2 3 4 9 11 6 4 7 8 8 10 8 6 4 5 8 10 8 5 5 6 7 5 12 10 9 15 15 12 12 10 8 5 3 2 1 3 8 7 2 2 3 3 4 5 8 7 6 6 6 6 7 8 8 9 10
26 23 21 18 11 6 8 10 10 9 16 16 15 19 22 16 5 0 2 2 2 2 3 3 2 3 5 4 4 5 4 5 5 5 3 4 8 7 4 7 7 7 9 8 8 6 5 6 8 5 2 4 6 4 9 17 14 13 16 14 11 9 6 5 3 3 3 2 3 9 10 4 1 4 6 4 4 7 7 6 6 6 8 9 9 9 9 10
25 21 19 16 8 3 3 7 9 9 16 18 18 18 15 6 1 0 3 1 2 1 2 4 4 3 7 4 2 5 6 5 5 4 3 1 4 6 4 6 5 3 6 5 5 8 8 5 4 4 1 2 3 3 11 20 18 11 11 10 9 5 2 4 3 3 1 3 1 6 10 5 2 3 5 5 6 8 9 8 10 9 9 9 9 10 10 11
23 19 18 16 12 11 10 8 10 12 15 18 18 12 5 2 0 2 3 3 3 1 0 2 4 2 5 3 3 4 5 1 4 4 3 4 4 4 5 5 3 2 4 4 4 5 5 4 5 6 3 2 1 1 8 14 9 5 8 8 7 3 1 3 2 1 1 2 3 2 7 4 3 2 4 7 9 10 10 9 10 11 10 10 10 10 9 10
21 19 17 15 13 16 17 14 14 14 15 17 14 6 1 2 2 4 4 3 2 2 1 1 3 3 2 1 4 2 6 3 3 6 5 6 5 5 8 9 7 4 3 4 3 2 2 5 3 6 3 3 2 0 4 7 5 6 7 6 4 4 2 2 2 1 1 0 3 2 6 3 3 2 5 10 11 10 10 9 9 10 11 10 10 10 9 9
18 16 15 13 13 16 17 15 14 14 14 13 8 3 2 2 3 7 6 4 4 5 2 1 1 3 4 3 4 5 3 2 6 6 5 4 4 4 6 8 11 10 4 3 3 3 4 4 2 5 3 4 5 4 4 3 5 9 8 6 5 5 4 3 3 2 2 1 2 2 4 2 1 1 3 8 10 8 8 6 3 2 3 3 5 7 10 11
15 13 12 11 14 15 14 13 13 13 10 7 4 3 3 2 4 6 4 3 6 8 4 1 1 1 3 6 4 9 1 2 10 9 4 3 3 4 4 6 11 10 2 1 3 2 5 5 7 9 6 8 8 6 5 5 5 5 5 6 5 4 5 4 3 4 3 2 2 1 2 2 1 1 3 2 6 9 7 3 5 5 2 4 7 6 8 11
14 9 8 10 14 14 12 12 13 11 7 3 3 3 3 3 5 5 3 3 7 8 7 4 3 3 2 5 6 8 3 2 8 5 1 2 4 3 2 4 8 7 3 2 2 1 2 3 6 10 8 9 9 6 6 5 3 1 1 2 5 7 8 5 2 4 4 2 1 1 2 1 0 2 2 1 6 9 8 5 6 5 5 7 9 7 7 11
14 8 6 11 15 14 12 11 10 10 6 2 3 5 5 5 8 6 4 5 9 8 7 4 5 3 3 2 2 2 6 1 3 2 2 2 4 5 5 8 7 2 3 3 2 2 3 4 5 9 11 9 7 5 5 6 4 1 0 1 4 7 6 4 3 3 2 1 1 2 3 2 2 1 2 4 7 9 10 9 8 9 9 9 9 6 5 10
15 9 8 14 18 15 14 13 12 11 5 3 5 7 7 8 10 5 4 6 8 4 3 3 2 2 3 4 3 2 5 1 1 2 1 2 2 4 5 7 7 7 7 3 1 2 3 2 6 8 12 9 7 4 4 5 5 2 2 2 3 4 2 2 3 3 3 0 1 2 2 3 4 3 5 9 10 10 11 10 10 11 12 11 10 5 4 8
12 4 4 14 18 14 14 16 13 7 3 4 5 5 6 9 7 2 4 6 6 4 3 3 2 0 3 2 2 2 5 2 0 2 2 3 2 6 5 4 5 6 7 4 1 2 0 1 2 4 7 9 7 3 3 4 4 3 3 2 3 4 4 3 2 3 4 2 1 0 1 3 4 4 8 11 12 12 11 11 11 13 14 12 9 4 3 4
7 1 5 15 12 10 12 11 7 4 3 5 5 5 8 7 5 3 3 2 2 3 2 4 4 2 2 3 3 2 4 2 1 3 2 2 3 5 5 3 4 5 7 6 3 3 1 1 2 1 2 4 5 4 5 5 3 2 2 2 1 2 4 4 2 2 4 4 3 2 0 3 3 4 7 10 11 12 12 11 10 10 13 11 8 5 3 5
5 1 8 13 13 16 8 5 3 4 4 5 6 8 8 5 6 8 3 1 1 3 1 4 5 3 2 4 5 5 3 3 2 2 2 2 2 2 4 4 4 5 5 4 3 2 1 1 3 2 2 2 3 8 8 5 6 6 3 3 4 2 4 3 0 2 3 3 4 4 2 2 1 2 5 6 9 11 11 11 10 9 12 11 7 7 5 5
4 1 7 5 18 14 5 4 3 4 4 5 7 7 6 3 5 9 5 6 5 3 2 2 4 4 4 4 2 6 1 3 2 2 1 1 2 1 4 7 7 6 5 4 4 5 1 1 3 3 3 6 4 9 9 6 6 7 6 5 4 3 4 4 1 3 1 1 2 3 1 1 1 1 2 5 8 10 11 10 10 9 10 11 9 6 5 6
3 4 14 9 13 11 3 2 4 4 2 7 10 7 4 2 4 8 7 6 4 1 3 3 3 3 3 2 3 5 3 2 1 1 2 2 1 1 3 5 5 5 5 4 5 7 5 2 4 5 4 7 8 6 10 6 6 4 6 8 6 5 4 5 4 4 2 1 2 3 1 2 1 3 1 4 7 9 10 9 10 9 7 9 11 7 4 5
4 4 12 14 6 7 1 4 4 2 1 8 11 8 5 1 3 7 7 6 3 1 3 3 2 2 1 1 3 4 5 1 1 0 1 0 1 3 3 3 4 5 4 2 2 4 4 2 4 4 4 6 7 1 3 2 3 2 3 5 6 8 7 6 4 3 3 5 6 5 1 3 2 1 1 3 5 7 9 10 10 10 8 8 9 7 2 1
5 2 5 10 5 3 3 4 4 3 3 5 8 10 8 1 2 2 3 3 2 2 2 1 1 2 3 2 2 1 3 2 1 2 3 2 1 3 2 1 3 3 4 3 4 2 1 2 3 3 2 3 2 2 1 2 4 4 5 5 6 9 7 5 4 3 2 4 7 6 3 2 2 3 4 3 5 5 5 6 6 6 8 8 8 7 2 1
3 2 3 4 4 4 4 3 5 5 3 2 5 8 8 2 6 3 2 3 1 2 1 1 3 3 2 3 3 1 2 4 3 2 2 2 2 2 2 2 3 3 5 5 7 2 1 2 1 2 3 4 5 6 7 6 4 5 6 5 4 4 2 1 2 4 5 3 4 3 7 6 4 5 6 5 5 5 4 5 5 6 4 2 5 7 5 2
2 3 4 3 1 4 3 4 6 5 2 3 1 5 8 6 1 4 1 1 0 2 2 2 3 4 1 2 5 3 2 5 6 3 4 4 2 4 5 5 4 4 3 4 6 2 2 2 4 3 4 5 6 8 9 8 4 2 3 6 6 5 4 3 1 2 7 7 3 3 10 10 7 7 7 6 6 6 4 5 6 6 5 3 2 5 5 2
2 3 4 6 5 4 5 4 4 5 4 2 2 3 7 8 5 2 2 1 1 1 3 1 3 3 3 4 3 4 4 6 6 5 6 5 3 6 5 5 4 4 2 3 2 1 2 1 4 6 7 8 10 10 9 8 5 4 8 9 7 6 7 7 11 10 5 6 6 9 11 10 8 7 6 6 6 5 6 6 6 8 9 6 5 8 6 3
3 4 5 8 7 6 10 11 6 7 7 2 3 5 6 4 4 1 1 2 3 4 1 2 1 3 5 6 3 2 3 3 3 4 5 5 4 5 3 2 6 7 5 4 4 3 2 2 4 6 7 9 12 12 7 6 5 8 13 13 14 17 16 16 17 16 11 8 9 9 7 5 2 3 5 6 6 6 6 7 6 6 7 7 7 7 7 6
4 4 5 6 7 6 9 10 5 4 5 3 3 5 7 5 4 2 1 1 4 3 1 2 2 5 6 3 2 2 3 4 1 1 2 4 2 2 2 3 4 7 6 3 2 2 2 3 6 5 4 7 10 10 7 7 4 13 16 13 13 19 20 19 17 14 13 12 10 9 10 8 6 5 6 6 7 7 5 6 6 5 6 7 7 6 5 6
8 9 8 5 5 6 7 8 6 4 3 1 2 2 5 5 3 4 5 4 4 4 5 5 4 3 4 2 1 1 4 4 3 4 4 3 1 2 1 1 1 4 5 4 3 3 3 4 6 4 3 5 9 8 11 9 6 16 19 15 14 17 16 16 14 12 11 10 11 11 9 5 6 7 7 9 11 9 6 4 5 5 6 7 6 5 5 6
13 12 10 5 3 6 6 5 7 5 2 1 1 2 4 5 2 5 5 4 4 1 6 7 3 2 2 1 4 7 6 4 4 4 3 4 4 2 5 5 4 3 2 2 3 3 3 2 3 3 3 5 9 10 13 11 9 11 13 13 13 15 15 15 14 14 12 9 8 7 4 3 5 6 9 11 12 9 5 3 3 3 4 5 4 4 4 4
Wind_Direction
354 351 348 345 343 342 341 339 337 336 336 335 330 326 322 320 317 316 317 314 313 311 312 315 312 316 315 321 332 335 335 323 319 299 249 252 251 217 223 249 267 220 215 222 202 209 206 202 231 236 241 240 233 205 128 118 158 114 88 129 332 291 234 191 166 127 103 194 209 224 215 158 146 158 145 140 125 132 128 129 135 127 124 125 133 139 134 136
358 355 352 347 346 345 342 337 335 334 335 335 332 330 326 322 319 317 317 316 316 313 314 315 314 319 318 329 341 343 337 320 305 276 259 254 225 205 226 240 237 208 206 213 211 215 208 201 215 224 233 231 232 171 125 133 209 113 112 131 136 217 219 164 135 133 155 215 287 281 277 149 157 146 127 118 130 133 122 129 128 119 117 122 133 135 134 140
1 359 356 351 349 346 343 339 335 333 333 335 335 334 331 327 322 319 318 318 319 319 318 318 320 321 326 337 347 352 333 314 291 267 275 263 222 209 221 233 218 207 216 216 210 216 223 221 215 212 217 226 234 155 128 204 239 41 94 140 219 163 151 185 181 167 159 118 54 319 318 324 156 134 141 130 140 150 135 135 127 122 126 131 135 134 140 140
4 1 358 355 351 347 344 341 338 335 333 334 337 340 339 334 331 326 321 319 321 324 322 320 322 323 333 342 355 357 325 304 276 238 5 62 206 200 210 225 218 216 228 223 217 229 239 242 233 214 210 231 206 137 134 147 162 241 140 197 211 141 110 182 206 176 156 140 128 170 332 320 219 130 141 143 153 162 139 133 129 131 136 136 136 140 143 136
5 2 359 356 353 349 346 343 341 339 337 335 336 340 342 342 339 334 329 326 326 325 323 320 322 325 337 347 9 360 326 321 72 168 117 60 152 184 203 215 219 228 230 220 228 250 256 261 255 225 216 236 171 136 145 140 136 156 192 221 197 131 136 135 199 190 160 135 134 142 87 288 238 143 168 159 171 161 128 129 132 134 136 137 139 143 141 139
4 2 359 357 354 351 346 345 344 343 342 340 338 337 340 344 341 339 336 331 330 329 329 325 323 329 338 351 14 355 321 337 328 298 113 46 105 172 198 212 225 230 221 212 230 253 258 258 255 237 215 220 204 166 151 147 146 149 212 201 87 24 89 120 166 204 178 128 153 156 130 242 245 154 180 181 165 126 123 129 131 132 136 139 140 142 143 147
3 0 360 358 355 353 348 346 345 344 343 343 341 336 336 337 336 336 332 331 335 333 328 326 327 333 342 354 5 334 242 269 287 263 191 72 138 176 192 208 220 212 201 204 222 238 246 243 237 234 222 232 223 156 146 145 179 200 85 102 89 37 26 105 154 166 167 135 168 136 136 218 219 154 163 200 139 121 123 130 128 133 136 139 143 143 145 154
1 359 358 357 356 354 350 347 346 346 344 343 342 338 335 334 334 333 331 332 331 328 325 325 332 340 354 2 336 264 238 254 252 204 188 187 163 183 184 191 199 191 192 204 215 222 239 244 230 227 233 235 146 118 154 141 166 190 77 111 131 135 124 75 119 108 144 168 159 45 224 221 195 162 163 191 136 122 126 129 129 137 137 142 148 143 150 158
359 357 355 355 355 354 351 348 347 346 345 343 340 337 334 331 332 334 334 334 328 326 324 324 336 358 16 354 306 277 273 216 195 177 181 200 189 188 182 183 184 181 190 209 222 230 237 238 224 230 249 253 120 126 162 145 116 130 130 170 126 102 56 17 106 71 36 233 339 224 215 200 184 170 173 175 131 123 129 130 135 140 140 151 148 148 158 154
356 354 352 352 353 353 351 348 346 345 344 343 340 337 334 331 331 333 333 334 330 323 322 328 338 8 14 316 276 278 283 184 159 157 148 164 189 181 179 181 179 179 191 211 223 236 242 241 237 232 237 270 269 144 144 127 119 133 140 134 89 83 46 336 63 61 346 315 11 287 174 176 189 167 158 156 127 124 132 133 142 143 146 155 147 153 157 151
353 352 350 350 351 352 351 349 346 343 342 340 339 337 335 333 330 333 334 331 329 322 324 330 335 11 355 301 272 249 266 269 82 165 158 144 188 182 177 182 181 180 193 210 220 232 242 250 261 252 219 272 261 113 105 120 130 136 131 100 78 83 79 18 48 65 345 339 357 341 147 172 194 171 156 140 126 130 136 138 148 148 150 151 148 154 152 155
350 349 348 348 349 350 350 349 345 341 340 338 338 336 336 333 328 330 330 328 325 319 326 336 31 44 343 286 236 243 263 304 321 216 160 156 208 199 186 188 189 185 196 212 221 227 235 249 262 263 266 309 250 108 116 134 131 139 128 103 100 101 82 40 15 20 14 355 340 339 95 135 173 174 153 131 131 137 138 145 152 150 147 146 151 152 149 153
348 346 346 346 347 348 348 347 344 339 336 334 334 335 336 332 326 325 325 330 321 312 322 327 72 42 336 269 242 260 277 287 289 282 213 218 208 208 207 201 199 193 205 223 231 231 233 243 260 272 283 303 344 86 103 125 127 136 121 109 121 96 70 50 360 348 24 6 338 348 129 209 212 167 152 139 140 141 143 153 153 146 142 146 155 145 145 146
345 343 343 344 344 345 345 345 341 338 333 331 333 334 335 331 325 319 321 331 322 306 302 304 59 64 266 259 273 281 281 265 272 275 247 226 210 204 201 206 210 204 213 231 247 258 255 242 250 283 299 297 10 86 86 73 107 132 119 109 103 86 99 64 355 342 42 28 337 343 134 203 226 163 158 153 147 145 149 156 149 143 141 148 153 140 143 145
343 341 341 342 342 342 342 342 339 337 331 328 332 333 331 327 320 312 316 331 318 290 292 311 248 216 268 276 288 287 258 252 258 257 244 219 212 204 192 202 213 209 215 229 245 265 270 245 224 251 277 285 269 143 122 104 327 199 140 120 41 83 93 20 318 305 23 38 344 341 141 202 292 281 228 164 150 151 154 154 146 142 145 151 151 140 144 148
341 339 338 339 339 340 340 339 338 336 330 328 331 330 325 321 316 306 308 322 303 260 264 306 220 211 276 279 286 276 233 236 244 241 231 214 217 206 183 195 211 208 214 225 236 257 267 250 194 231 246 263 259 214 140 124 234 259 181 133 165 147 122 318 304 346 354 22 349 346 146 223 157 202 256 192 153 156 157 153 146 145 149 155 152 142 146 155
340 338 337 337 337 338 337 336 337 334 329 328 328 325 321 316 307 299 302 316 298 250 231 283 270 217 252 272 300 290 234 219 225 224 209 207 226 217 182 186 205 204 212 223 231 242 251 234 113 34 237 245 263 212 137 161 191 274 318 112 157 152 147 166 99 112 345 88 328 330 140 244 172 191 238 197 158 159 162 155 149 148 150 157 149 143 154 162
339 337 335 335 336 335 334 334 335 332 327 327 327 323 321 312 299 295 300 326 328 262 252 276 287 271 260 263 264 260 223 188 191 204 196 202 228 229 196 182 193 191 203 222 228 226 217 176 118 45 229 224 256 227 157 187 184 185 197 102 129 150 160 170 151 153 164 153 163 233 174 247 208 217 235 192 168 161 164 156 149 147 148 160 148 145 166 164
338 337 334 334 334 333 332 332 331 330 324 320 324 324 321 311 296 290 273 232 181 250 273 242 206 223 301 258 233 250 58 110 175 195 199 204 216 217 199 192 199 191 193 193 200 204 190 134 139 209 238 213 220 227 201 167 160 155 143 120 137 142 156 166 138 145 158 152 143 165 188 212 202 233 235 188 169 160 167 158 149 146 148 164 150 146 172 165
338 336 333 333 332 330 329 329 326 325 320 319 329 335 326 315 319 349 194 219 217 231 263 247 198 221 279 285 223 57 41 100 204 209 210 213 209 188 181 199 206 201 199 182 184 191 187 172 179 202 223 225 222 218 195 136 120 118 116 126 133 120 128 149 125 148 171 147 148 167 175 202 201 234 253 180 162 165 173 164 151 148 156 170 150 150 174 167
338 335 334 332 329 328 327 325 321 320 318 319 329 339 288 301 314 295 282 235 224 228 243 258 239 226 265 291 293 258 265 209 199 229 208 200 198 159 163 201 195 193 216 215 201 186 191 198 205 208 214 231 234 212 182 143 128 134 138 127 114 108 131 143 144 163 193 139 147 167 160 198 215 266 326 167 170 180 174 170 160 149 161 171 145 154 178 160
338 335 333 330 327 326 323 320 319 317 315 312 316 277 258 287 278 278 298 294 267 250 232 243 255 249 259 271 265 346 314 225 207 228 191 178 196 169 158 192 197 187 207 227 222 173 192 219 218 215 214 227 242 229 182 146 136 140 138 129 121 122 109 53 146 157 182 206 156 192 169 183 236 334 357 21 166 192 167 173 171 153 161 168 148 159 175 149
338 335 332 330 325 323 320 319 318 312 306 296 269 241 259 280 282 296 327 310 291 287 247 220 241 258 231 246 244 197 242 238 211 201 180 179 208 197 178 189 210 207 196 216 226 178 184 215 217 224 222 220 235 234 171 135 143 150 147 143 138 153 144 98 181 158 175 254 143 165 166 185 302 354 359 14 43 346 11 349 197 162 164 166 154 159 164 151
338 335 333 328 323 322 320 318 313 310 308 290 265 265 274 279 288 315 354 288 283 293 270 209 205 248 217 211 210 199 225 242 233 185 161 182 220 198 198 196 206 225 208 207 220 219 217 207 201 216 228 225 231 221 164 135 160 166 164 160 145 163 160 121 142 152 133 44 117 127 95 266 263 309 297 341 32 24 30 14 325 181 172 161 155 159 158 156
339 336 331 326 323 321 320 320 316 324 324 288 270 285 290 277 288 324 353 284 275 272 262 217 177 260 202 166 160 194 221 223 254 182 146 193 240 204 208 210 197 225 220 208 215 230 241 219 187 197 221 230 235 220 172 154 162 182 176 162 154 158 128 114 133 143 126 140 166 146 148 217 226 228 254 309 31 16 27 35 315 216 180 160 156 160 156 156
340 335 331 326 320 320 324 325 315 328 321 279 283 306 306 280 304 333 343 256 273 250 227 192 157 72 199 158 144 216 240 229 273 162 146 189 242 248 247 226 178 219 231 215 210 220 245 247 198 184 204 224 230 228 197 172 162 198 170 150 147 141 124 130 145 150 136 162 175 158 162 192 230 234 230 242 54 317 301 210 278 285 207 169 160 162 159 159
340 335 331 323 318 323 323 293 310 324 310 289 313 330 346 346 331 328 322 237 309 242 191 162 157 192 178 146 164 206 215 266 309 136 152 173 213 255 264 245 196 217 247 230 215 211 225 253 243 189 193 212 208 213 235 201 163 181 138 135 136 132 133 139 140 132 104 121 134 163 139 123 216 224 201 148 118 268 257 224 240 281 258 197 170 168 164 163
340 336 328 321 318 316 295 288 310 317 299 312 327 333 340 335 320 316 352 356 3 315 212 114 124 198 169 140 203 226 147 260 307 182 183 167 183 236 244 252 278 260 255 242 219 204 200 233 252 216 193 187 187 210 222 126 99 109 112 118 123 121 122 119 105 58 69 113 149 197 171 113 216 210 144 145 184 231 231 222 220 228 249 216 179 176 169 162
339 335 324 319 318 308 297 290 289 302 315 324 329 325 322 314 304 318 358 299 282 201 147 99 105 209 168 128 214 242 157 209 213 199 192 168 187 225 247 266 295 301 284 265 243 221 192 219 238 230 184 165 202 215 157 97 99 124 112 102 96 93 89 88 88 70 85 119 195 194 186 157 203 182 157 172 202 217 213 216 217 210 233 220 183 182 176 163
337 333 321 316 316 315 322 291 268 315 335 326 317 312 310 306 300 341 280 265 219 202 154 150 128 175 186 159 201 212 182 223 226 192 187 171 190 209 267 273 271 297 291 258 249 262 248 229 227 224 165 179 205 184 112 114 127 126 109 100 90 84 74 74 67 64 91 261 215 184 189 190 205 189 187 187 192 205 196 199 216 211 224 216 186 183 179 168
334 330 316 308 298 264 304 277 264 321 341 331 319 306 299 301 107 149 291 243 207 238 158 168 124 148 202 192 209 193 172 222 240 191 183 178 190 195 244 263 234 266 287 259 243 257 257 237 192 178 169 256 217 145 120 129 139 130 119 118 101 92 70 65 37 30 114 264 279 174 187 202 238 201 197 197 185 190 188 194 206 204 214 213 190 186 179 170
332 324 306 296 282 251 240 251 280 313 331 333 323 302 285 314 225 205 248 262 259 295 321 174 111 149 213 202 248 206 142 172 287 286 226 176 190 203 210 236 216 205 276 271 237 237 256 249 177 148 150 271 310 117 131 132 137 134 132 126 103 111 157 84 80 335 194 271 333 162 170 197 265 218 199 209 198 190 188 197 202 196 204 210 196 188 176 171
328 315 298 287 275 255 247 261 287 303 318 328 321 292 302 354 281 249 258 281 257 224 279 277 137 158 170 48 286 214 114 112 285 291 254 187 184 205 209 225 235 242 243 231 224 184 264 272 194 126 127 197 210 201 148 139 154 173 156 136 114 131 147 114 130 195 225 156 13 110 154 179 279 237 204 212 208 194 186 196 202 197 201 208 204 188 169 169
326 306 292 280 266 256 254 262 274 284 302 319 311 280 332 333 263 283 317 17 331 307 344 336 195 160 141 101 292 270 119 154 237 247 237 209 192 197 212 227 234 248 251 223 239 170 198 265 179 139 140 174 199 221 217 222 197 185 170 140 128 136 142 141 145 177 226 163 72 105 166 190 244 255 247 224 206 186 186 200 188 177 210 237 243 198 167 168
329 301 285 274 260 254 250 251 259 267 284 305 295 277 302 281 268 297 342 19 315 329 355 286 277 256 162 129 216 259 311 154 228 228 205 214 237 212 202 218 226 231 215 190 285 217 206 222 175 174 167 164 199 217 207 260 265 203 153 122 139 160 137 126 155 168 173 149 112 186 220 222 195 247 305 269 180 168 185 191 81 55 345 288 270 231 179 171
338 315 285 263 256 252 239 240 253 250 245 273 293 282 273 276 290 307 359 332 301 319 321 316 36 350 301 127 196 236 86 99 241 239 117 226 283 291 247 270 247 217 144 134 269 306 213 236 191 178 171 172 201 216 180 201 256 287 60 127 162 154 129 112 136 146 139 136 110 272 267 324 298 269 305 155 161 164 184 186 127 138 212 243 250 238 194 177
342 322 285 262 259 254 238 235 232 215 213 264 287 283 291 294 287 296 1 325 294 298 307 342 41 340 314 77 221 191 113 113 287 32 18 287 314 328 322 314 295 264 68 98 208 205 177 285 275 184 172 175 194 224 210 200 204 163 342 253 137 131 128 121 122 130 132 121 155 217 240 232 220 246 163 171 182 179 187 192 172 171 195 225 239 245 215 183
334 312 290 269 261 252 233 218 206 197 205 273 263 275 289 282 274 286 0 322 300 320 356 11 25 297 346 11 333 53 99 121 31 101 311 341 343 303 308 323 329 352 360 26 111 222 174 300 293 188 169 164 167 210 250 245 239 214 244 246 128 133 161 135 131 149 147 105 213 213 252 228 212 201 169 180 194 191 185 189 184 178 190 214 225 245 261 196
319 294 282 267 256 233 200 189 194 207 239 261 254 267 270 266 268 294 18 333 319 16 27 333 313 203 27 18 274 18 57 30 354 95 42 48 339 299 315 340 329 322 311 308 12 316 347 59 271 199 158 150 151 171 223 237 256 273 293 278 143 151 166 157 163 153 136 148 202 145 350 246 224 195 178 182 192 191 183 186 191 186 190 204 210 218 275 226
302 255 272 265 236 167 158 172 195 229 248 253 257 271 274 286 315 346 48 345 321 50 16 321 338 352 34 36 305 324 84 121 222 98 106 173 212 268 276 268 274 284 292 297 306 295 329 33 275 259 115 146 163 180 191 192 193 209 287 288 201 160 151 151 172 168 146 149 166 145 208 258 241 178 176 181 185 189 187 186 191 190 189 193 196 193 234 261
289 306 272 248 175 143 155 184 216 234 226 253 255 269 292 333 334 314 322 18 55 95 332 345 17 339 340 46 336 314 72 78 6 80 142 203 192 246 290 301 308 322 317 304 324 351 16 331 298 312 351 307 198 178 184 194 179 164 177 240 250 203 139 111 67 224 182 149 159 161 165 294 300 184 186 175 172 183 189 186 185 190 187 182 187 188 189 240
248 277 291 221 149 153 205 191 231 249 219 264 258 262 304 352 324 315 349 24 32 63 306 5 46 336 344 70 324 301 30 86 14 5 178 230 212 222 342 334 329 343 346 344 5 1 325 241 321 321 311 310 271 186 181 217 210 171 171 207 232 220 148 117 176 227 239 70 133 120 86 315 307 260 192 150 155 172 182 184 180 186 185 176 183 196 188 206
249 297 304 290 156 159 258 239 256 268 239 292 282 261 272 306 326 338 12 14 7 31 330 4 53 348 3 80 296 318 10 106 150 254 237 239 273 31 351 322 329 6 5 4 8 349 330 350 355 329 307 311 298 202 170 207 234 191 189 196 203 223 194 156 176 176 141 198 129 80 18 242 252 324 1 134 154 165 172 178 173 174 181 177 183 198 207 190
312 293 296 289 190 145 280 243 248 264 248 299 302 293 279 295 354 341 354 350 341 24 354 3 27 335 324 339 311 350 20 30 190 288 315 128 26 344 307 312 0 32 41 36 1 344 339 358 15 360 340 335 327 333 138 211 278 280 230 203 200 218 206 180 177 149 155 175 144 121 217 238 231 318 34 112 135 148 160 167 166 168 174 181 188 195 215 153
300 242 267 276 237 177 241 245 269 266 236 279 296 295 289 279 89 337 308 302 296 330 328 315 9 321 331 348 310 323 50 58 37 348 13 68 335 288 271 342 1 38 59 1 309 328 355 324 28 57 19 339 322 308 305 287 309 304 269 244 231 226 212 178 142 120 189 178 128 130 173 222 225 169 148 124 106 108 124 138 144 159 167 180 189 183 179 48
308 284 282 272 225 212 223 238 262 262 246 251 274 286 285 222 127 121 316 319 305 303 326 31 358 340 349 343 319 318 70 51 26 350 4 13 319 329 14 335 325 48 47 336 299 303 58 313 319 143 181 226 226 233 245 245 259 267 265 284 281 259 269 259 159 157 172 128 81 138 149 150 202 178 156 158 138 118 91 93 77 59 73 185 194 168 166 163
285 284 307 343 296 250 238 219 230 246 203 154 194 302 297 302 91 125 121 344 331 318 15 54 314 307 26 3 334 344 46 24 7 345 347 343 336 15 359 307 318 48 37 305 274 259 67 346 305 286 246 244 249 259 269 274 271 252 301 323 309 290 296 306 359 142 148 115 76 175 148 147 185 184 163 162 145 130 124 118 107 104 126 202 179 115 115 112
276 277 333 5 342 293 306 296 267 290 287 152 104 289 281 309 332 114 138 215 166 36 17 343 269 291 69 72 1 345 27 24 3 351 352 342 354 14 340 295 345 17 337 309 310 23 44 323 312 321 312 309 305 291 278 285 303 24 25 8 6 357 355 27 39 38 78 122 157 177 157 151 176 177 154 140 124 130 143 138 146 160 163 162 118 103 113 144
327 323 354 358 337 305 308 307 291 293 304 20 44 299 279 305 320 25 66 344 43 81 83 271 303 18 44 81 93 17 36 41 2 357 346 324 342 6 337 334 3 342 325 2 15 29 34 320 325 325 308 312 311 296 278 284 317 40 37 23 44 50 40 40 42 35 42 83 134 147 121 100 116 122 114 111 113 123 130 127 138 154 141 126 124 125 140 164
353 338 349 336 323 315 310 309 299 280 306 44 69 300 292 298 313 333 109 24 13 42 217 269 46 41 27 56 132 132 140 162 184 255 278 298 332 21 345 9 355 318 320 6 5 13 45 321 320 317 301 304 298 295 309 309 351 56 40 18 48 61 50 43 39 33 42 64 81 77 67 47 13 37 82 92 92 95 104 115 118 117 110 113 120 114 117 139
347 337 340 320 311 317 310 313 310 275 252 154 151 227 267 274 328 36 58 35 347 338 350 2 22 38 27 5 288 89 129 162 196 206 221 276 297 151 149 3 304 305 325 358 358 346 354 332 326 335 340 309 301 336 7 357 38 57 38 22 44 60 59 54 44 35 38 52 57 54 55 34 353 14 52 61 61 53 39 53 64 71 89 99 116 121 108 119
348 345 343 327 293 303 300 306 305 286 232 229 286 263 264 280 336 84 73 331 288 319 357 348 348 22 48 45 7 14 17 352 338 334 319 314 305 210 177 200 222 241 294 353 11 343 322 316 333 356 6 312 316 2 36 40 48 45 28 30 49 59 67 68 56 46 39 37 53 57 44 11 5 24 43 54 63 61 40 27 26 45 81 87 118 137 103 102
Height
803 802 801 800 798 797 796 795 794 793 792 791 790 789 788 787 786 786 785 784 784 783 782 782 781 781 780 779 778 778 777 776 774 775 774 764 760 763 764 766 766 768 770 771 772 772 773 775 774 773 774 774 772 773 775 777 779 787 804 815 818 818 814 808 806 808 808 806 806 802 791 791 792 784 777 776 781 784 787 790 790 791 793 796 801 804 805 809
803 802 800 799 798 797 796 795 793 792 791 790 789 788 787 786 786 785 784 783 783 782 782 781 781 780 779 779 778 778 777 775 774 772 765 758 759 762 763 764 766 767 768 770 770 771 773 774 772 772 774 775 773 772 777 779 782 792 804 814 816 813 806 800 801 802 803 805 806 801 790 787 788 784 779 785 792 788 793 796 794 797 798 800 802 804 807 808
802 801 800 799 798 796 796 794 793 792 790 790 788 787 787 786 785 784 784 783 782 781 781 781 780 779 779 779 778 778 777 775 774 767 756 755 758 759 761 764 765 766 768 768 769 770 771 770 768 770 774 777 773 772 780 782 787 793 800 813 811 804 800 797 798 798 798 799 804 807 800 792 784 780 782 789 794 791 796 798 798 804 804 803 803 804 808 809
802 801 800 799 798 796 795 794 793 792 790 789 788 787 786 785 784 784 783 782 782 781 781 780 780 779 779 778 778 778 777 776 770 759 754 754 755 757 760 762 763 765 767 767 769 770 769 767 765 767 773 778 773 772 782 784 789 794 798 807 802 797 800 798 797 796 796 796 801 805 805 801 787 780 784 788 797 797 795 794 795 801 803 803 804 805 807 809
802 801 800 799 797 796 795 794 792 791 790 788 787 787 786 785 784 783 783 782 781 781 780 780 779 778 779 778 779 778 778 779 766 754 755 755 754 756 758 761 763 764 765 767 769 768 769 767 765 767 773 778 777 779 785 780 784 794 796 797 794 795 800 798 794 794 795 795 800 800 802 805 790 784 787 788 798 797 790 790 791 794 798 800 802 804 807 809
803 801 800 799 797 796 794 793 792 790 789 788 787 786 785 785 784 783 783 782 781 781 780 779 779 778 778 778 779 778 780 777 761 753 756 754 755 756 757 760 761 763 764 767 767 768 769 766 768 772 774 777 778 782 785 778 780 794 796 792 791 793 797 797 793 794 794 795 801 796 796 802 795 789 787 786 791 787 782 786 789 792 795 799 801 804 808 809
803 801 800 799 797 796 794 793 791 790 789 788 787 785 785 784 783 783 782 782 781 780 780 779 778 778 778 778 778 778 780 771 755 754 755 753 756 755 757 760 760 763 763 765 767 768 768 768 771 772 774 778 776 779 782 779 780 790 796 795 794 794 794 794 794 795 794 794 796 792 795 801 798 792 787 785 785 780 781 784 788 793 795 799 802 804 807 809
803 801 800 798 797 795 794 793 791 790 789 787 787 785 784 784 783 783 782 782 780 780 780 778 779 778 778 778 778 779 778 765 752 753 754 753 755 754 757 758 759 761 761 764 764 765 767 769 769 768 775 776 771 778 781 781 786 790 796 796 793 794 792 791 793 794 794 793 792 793 797 797 791 787 788 787 783 779 782 785 789 794 797 801 803 805 807 808
803 801 799 798 797 795 794 792 791 790 789 787 786 785 784 783 783 782 782 781 780 780 779 778 779 778 779 778 778 781 769 753 750 752 752 753 754 754 756 756 758 760 761 763 762 763 766 767 765 763 771 771 767 776 777 784 793 790 792 794 793 796 793 792 794 794 794 793 792 795 797 792 783 785 791 786 780 781 783 788 792 795 800 802 803 805 806 807
803 801 799 798 796 795 793 792 791 789 788 787 786 785 784 783 782 782 781 781 780 780 778 779 779 778 780 778 781 781 760 747 751 751 751 753 753 754 755 755 756 758 760 761 761 762 762 761 758 754 762 765 764 772 775 783 790 784 788 792 794 798 793 793 795 794 795 793 793 795 795 790 781 788 798 787 778 782 786 792 794 796 802 802 803 804 805 807
802 801 799 798 796 795 793 792 790 789 788 787 785 784 783 782 782 782 781 781 780 780 779 778 778 779 780 778 784 777 754 748 753 750 751 751 752 753 754 755 755 757 759 760 760 759 758 756 751 752 763 763 763 772 776 778 782 782 786 794 797 797 795 795 796 795 795 794 793 793 794 790 785 792 796 785 779 783 789 796 796 798 802 801 803 804 804 806
802 801 799 797 796 794 793 791 790 789 787 786 785 784 783 782 781 781 781 780 780 779 779 779 779 779 779 780 779 766 750 750 752 751 752 750 752 753 753 755 755 756 758 757 758 755 755 753 750 758 764 760 765 777 778 773 777 782 785 798 802 797 799 800 798 797 796 797 794 794 803 802 796 796 790 781 781 785 792 797 798 799 801 801 803 803 804 805
802 800 799 797 796 794 793 791 789 788 787 785 784 783 783 782 781 781 780 780 780 779 779 779 779 779 782 779 765 753 750 751 750 751 751 750 752 752 753 755 754 756 757 756 755 752 753 752 751 757 756 759 768 771 774 774 778 785 787 797 803 804 807 802 800 798 797 799 793 798 818 817 802 795 788 781 782 788 796 799 799 800 800 802 803 803 805 805
801 800 798 797 795 794 792 791 789 788 786 785 783 783 782 781 781 780 779 780 779 779 779 779 780 780 783 774 754 749 751 750 750 750 750 750 751 751 752 754 754 755 755 755 754 751 751 750 750 755 754 759 764 764 776 786 786 790 793 799 804 811 814 805 801 802 802 801 793 802 823 820 803 794 787 782 783 790 798 800 799 801 802 803 803 804 806 805
801 800 798 796 795 793 792 790 789 787 785 784 783 782 781 781 780 779 779 780 779 779 778 779 779 779 781 771 752 748 749 749 750 748 748 749 749 750 751 752 753 753 754 754 753 751 749 748 752 761 761 756 759 771 788 796 797 795 801 814 812 812 816 808 802 804 807 803 797 806 821 819 808 801 791 782 784 791 798 800 799 802 803 804 804 804 807 806
801 799 797 796 794 793 791 790 788 786 785 783 782 782 780 780 779 778 779 778 778 778 778 780 778 780 783 769 752 748 748 747 747 746 747 747 747 748 748 750 751 752 753 752 752 750 748 749 753 759 762 763 767 777 791 802 809 799 798 816 817 813 819 814 806 804 806 808 805 808 818 819 809 803 796 785 786 792 797 800 800 802 804 804 805 805 807 807
801 799 797 795 794 792 791 789 788 785 784 783 781 780 779 779 777 777 777 778 779 777 778 779 777 780 776 759 752 751 745 744 745 744 745 745 746 746 746 749 749 750 751 750 751 750 749 752 757 761 764 770 772 776 796 813 816 808 799 807 811 811 819 818 812 806 805 811 814 811 813 815 807 801 797 788 786 793 797 800 800 802 804 804 805 806 808 808
800 799 796 795 793 791 790 788 787 785 783 782 780 779 778 777 776 775 776 777 777 777 780 778 778 786 775 756 754 749 740 742 744 743 745 745 745 745 745 747 748 750 753 755 754 752 755 756 761 772 773 775 775 779 801 810 806 810 807 806 810 811 815 816 813 808 807 813 816 815 816 814 808 802 798 790 787 793 797 798 799 801 804 804 805 807 808 808
800 798 796 794 792 791 789 788 786 784 782 780 780 778 776 775 774 774 776 777 778 778 778 775 776 780 770 754 747 743 739 741 743 743 744 744 744 744 744 746 747 751 760 765 763 757 759 765 771 782 783 780 778 777 787 790 787 796 799 800 809 814 814 811 807 804 805 813 816 815 818 816 811 806 800 792 789 793 796 796 799 801 803 804 806 807 808 809
799 797 795 793 792 790 789 787 785 784 782 780 779 778 777 776 776 776 776 775 773 767 765 765 764 764 758 749 743 742 742 742 744 743 743 743 742 744 745 747 750 755 763 769 768 759 759 775 783 784 782 775 771 767 769 776 779 786 793 797 802 811 815 809 806 805 803 813 817 813 816 816 811 807 800 793 792 796 798 799 800 802 804 805 806 807 808 808
798 797 794 792 791 789 788 786 784 783 781 780 779 780 780 778 779 777 772 769 762 756 758 755 753 755 751 746 742 741 744 746 745 742 743 742 741 749 752 751 759 766 764 763 763 758 762 780 782 773 771 765 761 759 761 773 780 784 791 798 803 810 814 809 807 808 804 812 817 812 816 818 813 809 802 795 796 799 799 800 801 802 803 804 805 807 807 806
798 795 793 792 790 788 786 784 783 782 781 780 780 781 777 772 771 767 765 769 760 751 753 751 749 749 744 742 741 740 747 752 750 744 742 742 744 753 756 755 765 769 763 761 764 768 774 780 773 762 759 757 757 754 757 770 778 783 790 798 808 811 813 814 810 808 808 813 819 816 818 821 815 809 805 801 801 799 797 798 799 800 802 804 804 806 807 806
797 794 792 791 788 787 785 783 783 781 779 779 779 777 772 766 764 762 765 772 765 750 747 749 750 749 744 743 740 740 750 754 754 748 739 743 748 751 755 760 764 764 763 765 768 776 782 774 761 753 752 755 757 753 757 769 775 783 789 797 809 808 810 820 818 813 811 811 816 820 822 821 816 811 807 805 804 801 799 798 797 796 799 802 801 803 805 807
795 793 792 789 787 786 783 782 781 779 778 777 775 771 767 765 764 764 766 771 771 754 742 742 743 744 744 741 738 743 751 749 748 746 738 744 749 748 753 758 761 764 763 762 763 770 771 758 747 749 750 753 757 755 759 773 779 780 784 791 802 802 800 809 817 815 813 814 815 821 833 829 817 817 814 807 805 803 801 800 799 797 796 798 799 800 802 804
793 792 790 788 787 785 783 782 779 778 778 775 771 765 763 765 764 765 768 777 777 757 742 740 740 741 738 737 740 740 746 747 742 738 735 740 746 749 751 749 756 766 762 757 760 765 760 744 739 749 751 751 757 757 757 770 781 780 778 780 788 794 796 803 813 815 821 828 819 819 842 841 821 819 820 812 809 808 805 804 803 800 797 798 800 801 801 803
793 791 788 788 786 783 783 781 778 779 777 773 768 764 763 764 764 764 770 786 786 762 751 748 746 746 739 739 739 738 751 753 737 731 733 737 739 743 753 750 749 759 755 750 755 757 751 738 736 747 751 751 755 757 752 758 778 782 770 768 777 786 796 806 810 814 825 831 818 815 835 842 829 823 819 815 814 812 808 807 805 802 800 799 800 800 801 802
792 790 788 787 784 784 784 780 779 779 776 773 767 765 765 763 764 762 774 801 793 762 754 751 746 746 741 740 737 746 767 757 737 735 733 737 737 738 755 756 751 754 745 747 760 755 744 741 741 742 748 753 756 759 749 746 772 782 763 763 777 785 796 805 808 815 821 820 820 819 824 836 837 825 816 815 818 816 812 810 807 804 803 800 799 799 800 801
791 788 787 786 784 784 782 780 781 777 775 773 766 767 766 763 764 763 788 819 793 754 752 748 741 739 736 737 737 747 758 749 751 749 730 733 739 740 756 756 753 755 741 749 768 753 738 744 745 741 747 754 753 751 743 744 771 779 764 766 777 784 794 800 807 818 818 819 832 829 821 835 840 824 814 816 820 821 816 812 808 805 804 801 798 798 798 799
789 787 785 785 784 783 781 782 781 776 774 771 768 769 764 764 766 770 802 819 779 747 749 746 742 741 737 741 745 746 747 746 756 749 730 736 739 739 754 752 750 755 743 745 757 746 735 736 734 735 745 750 744 738 736 749 770 770 764 772 780 788 797 802 811 819 821 827 836 830 822 834 841 828 821 823 823 820 815 810 807 804 803 801 798 798 798 798
787 786 784 783 783 782 781 781 777 775 773 770 771 768 764 767 773 795 822 807 768 751 747 744 748 747 744 751 753 749 750 752 749 741 738 741 739 740 746 743 745 754 749 743 744 740 732 724 722 728 735 736 733 733 736 749 762 764 767 778 790 798 802 808 814 818 831 838 829 822 820 828 839 831 821 821 817 812 811 810 808 804 802 800 797 797 798 798
785 784 783 782 782 782 782 779 774 774 773 771 771 766 768 774 782 815 823 779 756 757 747 746 749 745 748 756 758 752 752 754 746 745 750 748 747 750 751 750 751 757 759 752 746 740 734 731 728 724 723 726 730 736 740 745 752 763 772 781 799 812 812 819 826 826 842 843 823 816 817 825 838 829 814 811 806 803 806 808 807 805 802 798 795 795 795 796
783 782 781 779 780 780 779 777 773 774 773 771 770 767 776 790 799 812 796 760 762 766 750 750 750 746 750 753 757 754 753 757 751 750 754 754 758 757 757 762 759 766 774 764 754 748 741 737 731 725 722 724 736 748 750 752 758 767 773 781 804 825 827 835 842 839 844 841 824 816 819 829 832 817 806 805 802 800 799 799 801 801 800 797 794 793 793 794
781 779 778 777 777 776 775 774 772 774 774 771 773 770 782 810 814 793 770 761 767 757 745 748 745 745 751 756 760 753 753 761 756 753 752 751 759 757 754 753 750 762 771 762 760 761 755 743 731 734 734 724 735 754 761 766 771 773 774 780 800 821 835 846 848 842 842 838 827 817 821 832 826 807 799 797 795 795 794 793 795 795 796 796 792 791 792 793
778 776 776 775 774 774 772 773 773 774 774 773 777 781 794 817 809 777 762 762 755 745 743 745 744 747 750 757 762 753 757 765 756 754 754 751 759 761 756 751 746 750 755 757 761 762 770 766 743 740 741 730 733 745 750 757 763 763 758 765 783 798 816 835 842 843 842 837 831 827 826 830 823 807 795 790 788 791 792 792 793 795 795 794 793 792 792 793
775 774 774 772 772 771 770 772 773 773 777 776 782 793 804 810 795 773 767 762 753 748 745 741 744 752 753 756 760 750 754 765 757 753 755 755 759 759 755 752 744 742 750 765 766 756 766 767 739 727 729 729 735 734 732 747 759 751 743 760 777 775 784 809 822 824 828 833 835 831 824 814 808 800 790 788 789 790 793 794 796 802 801 798 799 796 792 792
774 772 772 771 769 768 768 771 771 773 776 780 791 800 797 791 780 769 762 757 755 754 750 747 749 759 762 760 761 751 748 756 754 754 759 758 755 752 750 746 738 737 746 761 766 761 767 760 732 725 728 725 730 730 727 745 759 751 750 763 763 753 765 798 815 809 814 833 835 826 821 813 806 801 792 790 793 793 795 796 798 803 804 803 802 797 793 791
774 773 772 769 766 766 768 769 770 773 775 783 798 799 784 774 766 758 752 751 751 748 754 763 762 763 766 763 760 753 752 757 754 760 769 766 759 753 750 744 734 733 736 745 755 755 763 764 737 728 738 728 720 725 726 729 740 753 762 757 749 753 761 780 810 821 823 837 835 824 824 822 818 813 800 795 798 797 796 796 797 801 802 803 800 795 793 789
773 772 771 767 764 764 765 768 769 771 775 786 796 790 776 768 758 750 747 747 747 746 757 770 766 761 764 767 764 753 755 764 762 765 771 770 766 756 751 748 738 732 731 737 750 747 751 768 748 725 735 732 717 730 742 731 727 740 748 741 751 778 781 777 799 818 827 838 836 825 822 818 815 811 803 801 800 797 796 795 796 798 800 801 798 794 792 788
773 775 772 763 760 761 763 767 767 770 779 790 795 785 771 762 751 744 744 746 747 751 760 766 761 759 761 765 766 757 757 766 765 767 772 775 775 759 749 752 746 739 733 734 748 747 744 767 764 730 724 731 729 741 756 750 736 734 738 738 747 766 776 777 781 790 811 835 835 827 827 817 801 793 794 796 794 792 795 795 793 794 795 796 795 793 791 789
774 778 773 758 757 762 762 764 768 775 785 787 785 776 764 756 748 741 741 744 747 753 761 761 758 761 762 760 762 758 758 764 763 767 772 774 776 765 750 749 748 743 736 733 742 745 743 761 770 744 726 736 746 747 750 751 748 747 751 755 754 753 757 767 771 769 788 820 830 830 831 812 786 777 781 785 786 787 789 790 791 790 789 791 792 790 789 790
775 781 771 754 756 760 760 768 774 777 782 779 774 767 759 754 750 744 739 739 744 748 752 755 758 761 761 762 764 757 756 763 763 765 769 766 768 768 752 743 745 744 742 744 745 748 751 759 766 759 747 749 749 737 731 735 740 746 753 755 754 755 759 775 786 772 766 790 809 816 822 807 780 770 772 774 779 781 782 784 787 787 786 788 790 787 787 789
779 783 767 752 756 757 760 774 776 772 776 774 766 760 755 752 752 749 743 741 746 748 746 750 757 759 759 762 763 757 757 765 766 766 768 763 760 761 750 740 741 741 745 754 752 747 750 754 761 764 756 749 741 726 723 726 727 734 743 744 746 750 757 777 792 778 766 777 786 796 813 805 778 766 766 767 772 775 776 779 783 785 784 786 788 786 786 788
780 778 761 753 756 754 764 780 777 770 773 766 757 752 750 751 754 751 749 750 752 752 752 753 756 759 760 759 759 758 758 765 767 764 764 762 756 751 745 740 740 742 748 758 756 747 748 756 766 768 757 744 733 724 721 721 726 738 741 738 741 746 748 757 765 764 771 782 784 799 818 805 776 765 764 764 766 769 773 775 779 784 784 785 787 787 787 786
781 775 762 755 754 754 768 783 779 774 772 764 758 755 749 750 754 755 757 758 755 755 759 759 756 758 758 755 757 758 759 766 767 760 759 762 756 747 742 740 742 746 752 758 757 754 759 766 772 781 783 772 758 750 744 736 735 743 742 736 737 738 739 745 749 754 769 777 777 794 812 799 776 768 765 763 765 768 771 772 775 781 784 786 788 788 788 785
782 777 765 755 752 755 766 771 770 772 770 766 767 762 755 753 753 754 757 757 754 755 760 759 755 755 755 754 757 756 756 763 767 761 758 760 755 746 742 742 743 746 749 749 747 749 761 768 771 787 804 802 793 786 775 763 752 745 740 737 735 733 735 744 753 764 774 772 769 783 799 794 778 770 769 768 769 772 773 773 775 778 782 785 787 789 789 786
785 782 774 762 755 756 760 759 761 766 766 767 770 764 759 759 754 751 754 756 754 752 756 757 754 756 758 759 762 762 758 759 763 764 764 763 758 749 744 744 744 745 746 746 743 747 760 765 765 776 787 788 786 778 765 759 760 754 745 739 736 734 734 739 753 767 770 772 777 781 785 790 784 775 774 772 771 776 778 778 781 784 786 786 786 787 788 787
786 785 778 774 769 764 762 758 758 761 760 764 769 765 762 761 757 754 755 757 754 752 756 758 757 761 764 764 767 769 764 763 765 766 766 765 759 753 748 745 746 746 746 745 744 749 763 769 765 765 768 765 763 758 749 749 752 750 746 743 738 734 735 744 756 760 759 775 791 783 774 784 785 775 773 774 773 777 779 779 781 783 784 786 785 787 789 790
784 780 771 773 778 776 771 764 758 758 757 758 763 764 764 763 761 760 759 755 752 754 761 765 760 760 762 764 770 774 772 774 775 771 770 767 763 761 757 751 749 747 747 749 746 750 765 772 764 763 764 759 754 750 746 746 745 744 748 751 746 742 746 755 760 756 753 769 784 778 772 778 777 770 770 772 772 775 777 777 777 776 779 784 787 788 790 791
782 780 772 772 777 777 772 764 757 758 759 759 763 764 764 764 763 760 758 758 760 758 762 769 766 760 759 762 770 777 779 782 784 778 773 770 767 768 768 764 757 750 749 755 753 753 765 770 763 763 767 762 756 751 744 743 747 750 754 755 754 756 759 761 762 757 755 762 770 772 775 777 772 769 770 768 768 771 774 776 777 779 782 786 789 790 789 791
787 788 783 781 780 775 770 763 759 762 763 762 767 767 762 764 764 758 755 761 769 765 761 766 766 761 762 763 768 775 775 775 780 777 772 772 771 771 772 771 765 758 755 758 758 756 765 771 764 761 769 767 758 750 746 747 753 759 763 762 759 761 764 766 767 766 767 773 775 776 784 785 774 768 768 769 770 773 777 780 781 783 785 788 790 792 792 794
790 789 787 789 787 778 773 768 763 767 768 766 768 767 764 764 761 759 760 759 764 767 763 764 765 763 764 765 767 769 766 764 769 767 764 767 768 766 768 766 764 765 763 762 763 761 765 772 767 766 779 778 761 754 755 754 756 764 771 773 769 767 771 775 776 776 778 784 786 787 795 795 781 772 773 776 780 786 790 790 787 786 787 789 791 792 793 794
791 788 785 789 790 781 774 771 768 769 768 764 763 763 763 762 755 759 770 765 758 761 761 761 763 765 769 772 770 765 761 760 761 758 755 758 757 756 759 758 756 762 765 765 766 765 767 773 772 775 789 785 766 762 764 765 778 789 783 778 777 775 776 780 781 781 781 784 791 798 800 793 782 778 782 787 790 793 796 797 796 793 790 790 791 792 795 795